{"data":{"norad_id":65185,"epoch":"2026-05-25T03:22:00.852096Z","epoch_age_seconds":59973,"freshness":"FRESH","line1":"1 65185U 25175M   26145.14028764  .00004923  00000+0  34491-3 0  9996","line2":"2 65185  97.4505  17.6285 0002214 102.1078 258.0397 15.05658850 44144","mean_motion":15.0565885,"eccentricity":0.0002214,"inclination_deg":97.4505,"raan_deg":17.6285,"arg_perigee_deg":102.1078,"mean_anomaly_deg":258.0397,"bstar":0.00034491,"rev_number":4414,"period_min":95.639194761815,"perigee_km":547.95023238338,"apogee_km":551.01778296558,"semimajor_km":6927.6210076745,"source":"CELESTRAK","updated_at":"2026-05-25T13:38:20.713700Z"}}